Date,TemperatureHighF,TemperatureAvgF,TemperatureLowF,DewpointHighF,DewpointAvgF,DewpointLowF,HumidityHigh,HumidityAvg,HumidityLow,PressureMaxIn,PressureMinIn,WindSpeedMaxMPH,WindSpeedAvgMPH,GustSpeedMaxMPH,PrecipitationSumIn
2013-1-3,39.6,30.0,15.7,28.0,22.7,13.3,94,75,55,30.43,30.31,14,2,15,0.02
2013-1-4,39.4,30.4,23.0,27.8,24.4,20.5,99,79,60,30.46,30.39,20,2,22,0.00
2013-1-5,44.5,31.6,18.8,32.8,25.5,16.6,94,79,57,30.42,30.23,14,2,14,0.01
2013-1-6,39.4,34.6,22.2,34.0,28.4,19.1,88,78,71,30.43,30.13,18,4,21,0.00
2013-1-7,45.6,28.7,16.4,30.6,22.5,14.0,93,79,53,30.51,30.28,11,1,11,0.00
2013-1-8,55.9,35.7,20.7,38.4,28.7,18.5,94,78,50,30.36,30.25,17,2,17,0.00
2013-1-9,59.1,44.7,32.6,48.5,40.0,30.0,93,84,61,30.53,30.25,9,1,11,0.02
2013-1-10,36.1,35.8,35.5,34.4,34.1,33.7,94,94,93,30.52,30.50,2,0,3,0.00
2013-1-12,67.5,63.8,57.0,63.7,61.3,55.5,96,92,86,30.02,29.76,20,4,21,0.03
2013-1-13,67.6,47.8,30.1,62.4,46.1,27.0,99,94,81,30.23,29.72,31,4,31,2.09
2013-1-14,30.8,27.0,23.4,27.1,22.2,19.5,88,82,73,30.49,30.23,14,3,14,0.00
2013-1-15,31.2,28.0,21.6,29.0,24.2,19.1,93,86,78,30.39,30.10,19,2,19,0.00
2013-1-16,33.4,31.1,29.7,30.4,28.7,27.6,93,91,86,30.17,30.05,11,1,11,0.04
2013-1-17,46.6,34.8,26.6,37.0,28.9,22.4,94,80,56,30.46,30.15,17,2,19,0.18
2013-1-18,46.6,31.5,19.1,30.0,23.9,16.9,94,75,50,30.58,30.32,15,2,15,0.02
2013-1-19,56.9,45.5,37.1,34.2,30.4,27.2,69,56,39,30.33,30.01,25,8,25,0.00
2013-1-20,48.3,37.6,23.7,35.9,21.4,13.4,78,53,32,30.29,30.05,18,4,19,0.00
2013-1-21,28.6,23.6,14.5,18.3,11.2,3.1,78,60,39,30.35,30.20,21,4,23,0.00
2013-1-22,22.5,15.5,9.6,6.1,1.9,-1.9,69,55,41,30.49,30.34,15,3,17,0.00
2013-1-23,36.6,20.5,12.5,19.2,10.4,4.1,92,66,45,30.44,30.22,15,2,15,0.00
2013-1-29,66.3,65.6,65.0,61.1,60.4,59.9,84,83,82,29.72,29.55,28,12,29,0.00
2013-1-30,69.6,50.0,31.4,63.1,46.1,25.1,96,86,75,29.74,29.33,33,8,35,1.30
2013-1-31,35.1,30.0,25.5,27.7,22.0,18.5,92,72,60,30.04,29.74,26,6,26,0.00
2013-2-7,67.4,54.4,33.4,47.0,41.3,30.0,91,63,45,30.13,29.85,16,3,20,0.00
2013-2-8,53.3,37.0,28.1,47.8,32.4,24.5,94,83,77,30.38,29.86,19,4,20,0.16
2013-2-9,46.5,34.2,23.4,30.5,26.2,20.6,99,74,50,30.44,30.20,15,2,16,0.00
2013-2-10,56.1,46.6,36.4,50.7,40.3,26.1,94,80,55,30.20,29.82,25,6,25,0.27
2013-2-11,55.2,47.0,37.0,51.9,35.3,28.0,92,64,48,30.13,29.82,27,7,29,0.00
2013-2-12,51.4,38.1,25.0,33.9,29.0,22.6,94,72,44,30.19,29.93,12,1,12,0.00
2013-2-13,37.5,36.1,35.2,32.1,31.4,30.5,86,83,76,29.93,29.86,5,0,5,0.00
2013-2-17,42.2,31.0,16.4,21.5,17.6,12.4,87,59,36,30.31,30.21,11,2,11,0.00
2013-2-18,61.9,45.3,27.0,43.5,32.2,17.3,91,62,41,30.21,29.77,34,8,37,0.36
2013-2-19,45.5,35.1,28.2,43.1,27.0,19.1,93,73,52,30.18,29.73,24,6,27,0.12
2013-3-7,37.7,34.5,30.3,31.8,28.8,26.5,90,80,72,30.44,30.38,6,1,7,0.01
2013-3-8,50.8,38.2,25.6,33.5,28.3,23.0,93,69,47,30.49,30.36,15,2,16,0.00
2013-3-9,59.7,47.1,29.7,38.8,33.7,26.3,89,62,40,30.37,30.04,14,3,14,0.00
2013-3-10,70.8,59.1,50.1,48.6,39.9,35.8,85,50,34,30.04,29.79,27,6,27,0.04
2013-3-11,53.2,46.4,36.3,52.1,43.0,30.7,96,88,68,29.95,29.69,24,6,25,1.36
2013-3-12,49.9,39.9,34.4,33.5,29.2,25.0,85,67,47,30.14,29.95,19,4,25,0.00
2013-3-13,36.0,35.2,34.5,31.8,30.6,27.3,88,83,73,30.14,30.12,10,1,12,0.00
2013-3-17,37.9,35.2,34.0,35.8,33.5,32.2,94,93,92,30.10,29.91,20,5,23,1.17
2013-3-18,49.9,42.0,35.5,47.4,39.8,33.7,100,92,82,29.93,29.66,21,4,21,0.80
2013-3-19,47.9,38.4,29.0,35.2,24.8,17.9,92,61,34,30.20,29.92,20,4,23,0.00
2013-3-20,39.8,30.8,22.7,25.6,19.7,12.7,91,65,41,30.19,30.07,23,4,28,0.00
2013-3-21,37.3,26.5,19.2,18.4,14.1,10.7,77,60,39,30.12,30.04,17,2,17,0.00
2013-3-22,22.5,20.5,18.8,16.9,16.0,15.2,86,83,77,30.09,30.08,1,0,1,0.00
2013-3-24,39.0,37.1,34.3,37.6,34.6,32.0,95,91,85,29.69,29.41,23,5,24,0.58
2013-3-25,35.4,32.5,31.0,32.2,29.8,27.7,93,90,84,30.07,29.51,21,4,22,0.05
2013-3-26,41.5,35.5,32.1,31.4,28.7,25.1,92,77,56,30.33,30.06,15,3,17,0.03
2013-3-27,46.5,35.3,25.0,29.8,25.4,21.8,91,69,46,30.40,30.33,13,1,13,0.00
2013-3-28,54.6,37.0,21.5,33.0,26.5,19.3,93,69,39,30.43,30.32,12,1,12,0.00
2013-3-29,58.1,42.8,28.3,44.8,35.3,25.3,91,76,56,30.35,30.22,12,2,13,0.00
2013-3-30,62.2,46.1,31.9,48.6,38.0,30.4,100,76,43,30.26,29.95,16,2,16,0.01
2013-3-31,61.6,50.9,42.8,50.2,46.0,40.1,96,84,60,29.96,29.84,15,2,17,0.09
2013-4-1,52.8,42.8,34.1,40.2,31.0,22.7,97,66,37,30.18,29.86,17,3,18,0.01
2013-4-2,52.3,35.9,22.6,30.6,22.6,19.3,92,62,30,30.33,30.17,12,1,13,0.00
2013-4-3,51.8,39.1,22.8,27.9,22.6,18.9,92,55,33,30.42,30.30,17,3,19,0.00
2013-4-4,56.8,45.2,34.2,33.2,25.8,20.1,80,47,34,30.31,30.02,14,2,15,0.00
2013-4-5,66.5,47.2,26.0,40.3,32.0,23.5,93,61,30,30.14,30.02,18,2,18,0.00
2013-4-6,72.9,55.1,35.6,45.9,37.8,30.8,85,56,34,30.16,29.91,24,4,24,0.04
2013-4-7,73.9,65.3,58.2,57.1,48.8,42.1,72,55,44,29.97,29.90,21,6,23,0.00
2013-4-8,73.8,63.1,51.5,59.0,53.0,46.7,84,70,58,29.97,29.88,26,4,26,0.00
2013-4-9,82.3,68.6,54.8,63.6,58.7,51.4,92,72,50,30.05,29.92,24,5,26,0.00
2013-4-10,70.0,68.6,64.9,61.7,60.9,58.9,82,76,74,29.95,29.90,10,2,11,0.00
2013-4-11,60.1,56.9,52.1,58.7,55.5,50.4,96,95,94,29.62,29.52,17,2,17,1.02
2013-4-12,52.9,45.2,37.7,50.4,37.6,33.0,95,76,59,29.99,29.59,23,4,27,0.07
2013-4-13,62.9,48.0,31.2,42.5,36.4,28.8,93,67,42,30.09,29.99,21,3,22,0.00
2013-4-14,76.2,56.8,36.1,50.6,43.4,34.3,95,65,35,30.04,29.83,22,4,22,0.00
2013-4-15,74.5,64.3,57.3,59.5,54.1,48.7,80,70,56,29.99,29.89,15,4,16,0.00
2013-4-16,81.5,69.5,61.5,69.5,62.3,54.5,93,78,64,30.11,29.92,22,5,25,0.06
2013-4-17,78.7,65.8,60.2,71.2,63.0,58.5,96,91,74,30.13,29.90,19,3,23,1.04
2013-4-18,82.7,72.6,63.4,66.8,61.6,57.8,92,70,49,29.90,29.58,32,7,32,0.00
2013-4-19,73.8,44.8,39.3,62.1,38.0,31.2,94,78,61,30.07,29.50,24,6,24,1.17
2013-4-20,56.9,44.7,31.7,37.1,32.0,27.9,94,64,34,30.39,30.07,15,2,19,0.00
2013-4-21,61.8,47.7,35.4,39.6,33.4,28.3,83,60,38,30.50,30.33,18,3,18,0.00
2013-4-22,72.8,54.2,34.4,50.0,41.7,32.3,94,67,38,30.35,30.10,12,1,13,0.00
2013-4-23,71.5,57.7,42.7,56.8,49.4,40.5,94,75,57,30.13,29.86,20,4,21,0.00
2013-4-24,66.5,49.5,34.7,57.1,44.2,32.6,94,82,66,30.28,29.81,22,3,24,0.65
2013-4-25,62.3,45.7,30.2,43.7,36.5,28.7,100,73,44,30.40,30.28,19,3,19,0.00
2013-4-26,39.4,35.6,33.8,35.6,33.2,31.9,93,91,85,30.44,30.39,2,0,2,0.00
2013-5-5,54.6,53.2,50.9,52.5,50.5,49.1,94,91,88,29.90,29.87,17,6,20,0.53
2013-5-6,53.0,52.9,52.9,51.9,51.8,51.8,96,96,96,29.84,29.84,6,2,11,0.01
2013-5-7,75.1,65.3,54.9,61.6,57.5,52.9,97,77,55,29.98,29.92,11,1,11,0.05
2013-5-8,81.3,65.9,51.2,63.7,57.6,50.0,97,77,45,30.02,29.93,9,1,10,0.02
2013-5-9,80.5,64.5,52.8,67.0,59.2,51.7,97,85,49,30.04,29.92,27,1,27,0.08
2013-5-10,66.3,63.4,60.5,61.0,59.8,58.4,93,88,82,29.95,29.87,11,1,12,0.00
2013-5-12,60.3,53.4,38.9,40.5,36.6,33.4,94,55,38,30.18,30.12,18,3,20,0.00
2013-5-13,41.2,37.4,33.8,37.6,35.1,32.3,94,91,86,30.18,30.16,0,0,2,0.00
2013-5-26,75.5,68.1,55.8,59.5,55.4,51.8,90,65,51,30.29,30.14,13,2,14,0.01
2013-5-27,85.4,72.1,56.6,66.7,59.6,53.1,89,66,46,30.14,29.94,22,4,23,0.00
2013-5-28,85.6,76.7,68.5,69.2,64.0,61.1,80,65,51,30.02,29.91,22,5,23,0.00
2013-5-29,89.2,75.8,61.8,70.0,64.4,58.7,92,70,48,30.08,29.97,18,3,21,0.00
2013-5-30,87.8,77.3,68.4,74.3,68.2,62.5,89,74,59,30.10,29.96,22,3,23,0.06
2013-5-31,79.6,73.3,70.5,73.0,68.7,65.2,95,86,74,30.02,29.90,24,4,24,0.30
2013-6-1,74.8,69.2,63.5,70.3,66.1,61.4,96,90,74,29.97,29.77,21,3,21,0.46
2013-6-2,77.1,69.5,62.6,65.7,63.2,59.3,95,81,61,29.94,29.86,12,2,14,0.00
2013-6-3,74.8,63.8,54.3,60.7,56.9,52.1,95,79,54,30.06,29.94,12,1,12,0.00
2013-6-4,79.0,64.6,48.6,63.4,56.3,47.1,96,77,52,30.12,30.00,16,2,16,0.00
2013-6-5,86.1,70.6,55.5,68.9,61.5,53.6,95,75,50,30.04,29.82,13,1,14,0.00
2013-6-6,81.3,70.8,64.2,70.7,66.6,62.4,96,87,63,29.84,29.74,7,0,9,0.06
2013-6-7,80.4,68.8,60.1,69.5,63.2,59.0,97,84,58,29.81,29.77,11,0,11,0.00
2013-6-16,79.8,68.5,66.2,72.0,66.9,64.5,96,95,77,30.06,29.95,15,1,18,1.19
2013-6-17,90.7,73.4,64.3,77.2,68.4,63.1,98,86,55,30.00,29.85,15,1,15,1.69
2013-6-18,88.4,72.1,63.3,72.9,65.4,61.0,97,81,53,29.96,29.83,19,1,19,0.01
2013-6-19,83.3,71.7,59.6,69.6,64.3,58.2,97,79,53,30.08,29.95,12,1,12,0.00
2013-6-20,90.5,74.3,59.6,70.5,64.7,58.2,97,75,42,30.17,30.08,10,1,11,0.00
2013-6-21,90.6,76.0,62.2,74.2,68.1,60.8,96,79,55,30.18,30.07,10,1,12,0.00
2013-6-22,89.9,78.3,66.9,75.6,70.3,65.5,96,78,54,30.16,30.04,12,2,13,0.00
2013-6-23,88.5,76.3,65.2,74.9,69.6,63.8,97,81,57,30.12,30.03,15,1,15,0.00
2013-6-24,77.4,72.5,68.4,72.4,69.2,66.4,96,90,78,30.14,30.04,11,1,11,0.12
2013-6-25,91.5,78.6,66.0,78.4,72.2,64.8,97,82,59,30.06,29.89,17,2,17,0.00
2013-6-26,85.5,74.7,66.3,77.1,70.8,64.8,97,88,72,29.97,29.72,24,3,24,1.24
2013-6-29,76.1,73.0,69.9,68.0,67.1,66.2,88,82,76,29.61,29.59,2,2,4,0.64
2013-7-3,82.9,75.1,61.3,70.8,67.8,60.2,97,79,61,30.09,30.03,12,2,12,0.00
2013-7-4,70.7,68.9,66.4,69.5,67.7,65.2,97,96,92,30.12,30.04,11,1,11,0.27
2013-7-5,80.6,71.9,65.2,73.7,68.7,64.3,97,90,75,30.12,30.05,13,1,13,0.03
2013-7-6,74.8,68.5,65.1,69.0,66.3,63.9,97,93,79,30.11,30.05,7,1,10,0.47
2013-7-7,87.3,74.5,64.8,74.9,68.0,63.6,97,82,56,30.11,30.03,10,1,13,0.01
2013-7-8,90.1,75.2,64.0,77.0,69.6,62.8,97,84,56,30.14,30.03,13,1,13,0.00
2013-7-9,91.1,81.0,71.9,80.3,74.5,70.6,96,82,61,30.09,29.97,14,2,15,0.00
2013-7-10,78.7,75.5,70.4,75.5,73.1,69.0,96,92,89,29.99,29.90,2,0,2,0.56
2013-7-11,83.1,73.7,64.4,71.2,67.0,60.9,98,81,54,29.99,29.91,13,1,14,0.00
2013-7-12,83.5,69.2,56.7,67.9,61.0,55.3,96,77,50,30.08,29.99,14,1,16,0.00
2013-7-13,82.4,71.1,59.0,71.4,64.3,57.6,96,80,62,30.08,30.02,21,2,33,0.00
2013-7-14,91.8,77.5,64.8,76.4,70.2,63.3,97,80,56,30.17,30.07,14,1,14,0.00
2013-7-15,92.0,79.6,70.5,76.0,72.3,69.1,97,80,56,30.27,30.17,14,1,14,0.00
2013-7-16,93.1,81.0,68.9,80.0,74.1,67.7,97,81,58,30.31,30.23,7,0,9,0.00
2013-7-17,95.1,81.5,71.3,81.1,75.6,70.4,97,84,56,30.30,30.16,7,0,11,0.00
2013-7-18,93.5,81.5,73.5,81.7,76.7,72.6,98,86,59,30.19,30.02,10,0,10,0.06
2013-7-19,90.8,81.0,70.6,79.1,74.0,69.4,97,80,60,30.04,29.90,14,2,15,0.00
2013-7-20,90.0,78.5,70.0,78.8,72.6,68.8,97,83,61,29.93,29.84,15,2,15,0.00
2013-7-21,92.3,77.9,70.2,77.5,71.9,68.7,95,83,54,29.95,29.84,21,0,21,0.18
2013-7-22,82.8,73.7,70.0,76.5,71.3,68.9,97,92,76,29.91,29.77,13,1,15,0.56
2013-7-23,90.6,76.8,68.3,79.4,72.4,67.4,98,87,66,29.85,29.73,12,1,15,0.00
2013-7-24,79.9,70.4,62.7,69.4,62.7,57.9,91,77,60,29.96,29.80,15,1,15,0.00
2013-7-25,81.1,67.9,56.4,66.4,60.6,55.0,96,79,52,30.07,29.96,9,0,10,0.00
2013-7-26,83.5,70.0,56.0,69.1,62.3,54.9,97,79,54,30.08,29.97,10,1,10,0.00
2013-7-27,79.4,68.9,61.5,69.0,63.8,56.3,96,85,57,29.98,29.86,17,2,17,0.13
2013-7-28,77.6,64.2,49.6,61.1,54.4,48.0,96,73,48,30.07,29.94,12,1,12,0.00
2013-7-29,82.7,66.7,52.0,66.1,59.0,50.6,96,79,50,30.18,30.07,11,1,13,0.00
2013-7-30,79.4,67.5,59.0,69.9,63.6,57.6,96,88,63,30.19,30.09,11,1,12,0.13
2013-7-31,76.8,69.8,65.4,71.6,67.1,63.3,96,91,81,30.11,29.95,9,1,11,0.00
2013-8-1,85.8,73.1,63.9,71.3,66.0,61.8,98,81,49,30.01,29.93,14,1,14,0.00
2013-8-2,84.7,72.3,58.2,69.3,64.4,57.1,97,78,54,30.03,29.96,13,1,14,0.00
2013-8-3,87.4,75.2,66.0,76.5,69.7,64.5,96,84,64,30.03,29.94,12,1,13,0.00
2013-8-4,80.8,70.0,58.4,67.9,61.1,56.7,96,76,50,30.13,30.03,12,1,12,0.00
2013-8-5,60.8,56.9,53.7,58.7,55.4,52.6,96,95,93,30.11,30.08,0,0,0,0.00
2013-8-15,77.5,66.8,48.4,62.6,57.1,47.3,97,73,52,30.15,30.05,12,1,14,0.00
2013-8-16,81.4,66.8,52.1,65.8,58.6,51.0,97,77,52,30.12,30.07,14,1,14,0.00
2013-8-17,83.8,70.5,62.2,70.8,63.5,58.6,93,79,57,30.16,30.06,13,0,13,0.00
2013-8-18,85.2,71.1,58.4,68.6,63.6,57.3,97,79,49,30.16,30.06,11,0,11,0.00
2013-8-19,88.5,73.5,60.8,72.2,66.4,59.6,97,80,54,30.12,30.03,8,0,9,0.00
2013-8-20,88.6,74.2,61.5,75.6,68.4,60.3,97,84,58,30.13,30.04,12,1,15,0.00
2013-8-21,93.1,76.8,64.4,76.3,69.9,63.5,97,81,52,30.15,30.03,13,1,13,0.00
2013-8-22,91.7,77.9,65.9,75.0,70.3,64.8,98,80,51,30.11,30.00,14,1,14,0.00
2013-8-23,91.7,76.7,67.1,75.2,69.4,65.1,97,80,51,30.10,30.01,10,1,12,0.00
2013-8-24,90.2,74.2,60.7,71.0,63.7,58.6,97,74,38,30.22,30.10,12,1,14,0.00
2013-8-25,92.4,73.9,56.9,73.3,65.9,55.8,97,79,46,30.31,30.19,8,1,9,0.00
2013-8-26,91.1,76.2,63.8,75.4,69.6,62.9,97,82,55,30.24,30.08,10,1,11,0.00
2013-8-27,93.0,78.6,68.2,78.8,72.8,67.3,98,84,60,30.10,29.97,10,1,11,0.00
2013-8-28,96.9,83.0,69.5,74.4,71.7,68.3,97,72,44,30.00,29.91,15,2,22,0.00
2013-8-29,97.3,81.2,69.4,79.0,72.1,67.6,95,76,47,29.99,29.92,9,0,11,0.00
2013-8-30,98.2,80.9,66.6,77.9,72.1,65.5,97,78,45,29.96,29.83,12,1,14,0.00
2013-8-31,93.9,78.5,71.8,79.1,73.7,70.6,97,86,59,29.86,29.76,14,1,20,0.12
2013-9-1,90.6,80.3,68.2,77.5,73.3,67.3,97,80,63,29.82,29.74,14,2,15,0.66
2013-9-2,88.6,74.8,65.8,77.4,70.5,64.6,97,87,65,29.87,29.79,17,1,22,0.29
2013-9-3,84.2,70.2,59.7,67.9,62.6,57.7,97,79,49,30.05,29.87,14,1,15,0.00
2013-9-4,87.1,68.1,53.4,67.8,60.4,52.3,97,79,46,30.15,30.05,13,0,14,0.00
2013-9-5,90.2,71.6,57.0,70.9,63.8,55.9,97,79,47,30.19,30.11,9,0,9,0.00
2013-9-6,89.6,72.7,59.9,72.6,65.4,58.8,97,80,51,30.19,30.06,8,0,10,0.00
2013-9-7,90.5,74.1,59.6,72.4,66.3,58.5,97,79,50,30.08,29.95,10,1,13,0.00
2013-9-8,92.1,75.8,67.6,75.0,69.4,65.9,97,82,52,29.98,29.92,13,0,13,0.01
2013-9-9,93.2,73.9,64.4,76.5,68.6,63.5,97,86,54,30.01,29.96,12,1,12,0.00
2013-9-29,61.2,61.1,61.1,60.1,60.0,59.7,96,96,95,30.02,30.01,0,0,3,0.09
2013-9-30,80.1,67.0,61.2,66.9,62.7,60.1,97,87,63,30.02,29.94,5,1,8,0.01
2013-10-1,84.6,66.7,57.2,69.4,62.1,56.1,97,87,57,30.09,30.00,5,1,10,0.00
2013-10-5,70.6,70.5,69.9,69.7,69.5,69.0,97,97,97,29.97,29.92,16,2,16,1.82
2013-10-6,67.8,58.0,49.6,67.2,57.1,47.1,98,97,91,29.91,29.78,14,2,14,2.70
2013-10-7,67.8,53.4,44.7,53.1,47.4,43.6,97,82,53,30.18,29.90,13,1,13,0.00
2013-10-8,68.8,52.9,40.1,53.6,46.4,39.1,100,81,51,30.26,30.16,19,2,19,0.00
2013-10-9,82.8,58.3,42.3,65.0,51.9,41.2,100,82,48,30.22,30.13,7,0,7,0.00
2013-10-10,53.2,51.0,49.0,51.7,49.7,47.8,96,95,95,30.15,30.14,0,0,0,0.00
2013-10-15,64.8,63.9,63.1,63.0,62.2,61.6,95,94,93,29.98,29.95,10,0,10,0.04
2013-10-16,64.5,60.3,47.2,62.7,56.0,45.8,95,86,69,29.99,29.90,12,1,12,0.00
2013-10-17,62.4,49.5,43.0,52.0,46.0,41.4,96,88,63,30.02,29.93,18,1,18,0.20
2013-10-18,69.5,51.2,38.7,53.3,45.1,37.4,97,82,50,30.08,29.96,16,1,16,0.00
2013-10-19,57.6,47.5,36.7,48.2,44.1,35.1,96,89,56,30.05,29.86,18,1,18,0.21
2013-10-20,65.6,47.9,34.8,47.6,40.9,33.5,96,79,48,30.10,30.01,17,2,17,0.00
2013-10-21,67.9,51.9,37.1,50.4,44.2,35.5,95,77,51,30.05,29.94,20,3,20,0.00
2013-10-22,61.7,47.5,32.2,45.5,37.9,30.3,95,72,42,30.08,29.83,10,1,10,0.01
2013-10-23,49.2,43.7,36.7,44.2,36.9,32.4,92,77,57,30.11,29.80,21,3,21,0.00
2013-10-24,44.5,39.2,29.9,37.1,32.7,26.6,90,78,59,30.36,30.10,18,1,18,0.01
2013-10-25,54.2,35.8,24.0,33.2,27.9,22.3,95,76,41,30.52,30.35,11,0,11,0.01
2013-10-26,59.0,40.4,25.5,42.3,32.9,23.6,93,77,51,30.35,30.00,25,3,25,0.00
2013-10-27,65.7,43.6,29.2,42.4,34.7,27.7,95,75,36,30.15,30.06,11,1,11,0.00
2013-10-28,72.0,47.6,34.3,45.9,37.9,32.3,95,74,34,30.30,30.11,7,0,7,0.00
2013-10-29,57.7,46.8,34.5,54.2,44.5,32.9,100,92,83,30.35,30.17,11,0,11,0.08
2013-10-30,70.6,62.2,55.1,66.9,60.6,54.0,100,94,84,30.18,30.01,12,1,12,1.57
2013-10-31,66.0,63.8,59.5,64.8,60.4,57.2,97,89,77,30.02,29.42,33,7,33,0.90
2013-11-2,59.4,49.7,36.5,46.6,41.9,34.8,100,76,58,30.15,29.87,18,2,18,0.00
2013-11-3,60.4,42.8,30.8,43.2,36.1,29.3,100,79,47,30.35,30.15,10,1,10,0.00
2013-11-4,61.7,49.6,36.3,46.4,41.2,34.2,93,74,54,30.39,30.29,22,2,22,0.00
2013-11-5,63.5,54.0,47.2,47.1,44.5,42.3,86,71,54,30.41,30.21,11,1,11,0.00
2013-11-6,64.2,54.9,43.1,58.8,50.8,41.5,96,87,73,30.20,30.01,22,3,24,0.35
2013-11-7,54.6,41.8,33.6,41.5,33.6,27.9,95,76,40,30.34,30.13,16,2,16,0.04
2013-11-8,58.1,40.4,26.6,37.1,30.7,24.8,95,71,38,30.43,30.26,9,1,9,0.00
2013-11-9,64.3,47.8,30.1,41.8,35.2,26.9,89,64,41,30.27,30.11,29,5,29,0.00
2013-11-10,60.9,45.7,30.4,41.8,34.6,27.3,93,69,34,30.37,30.19,15,1,15,0.00
2013-11-11,66.2,45.0,27.5,45.3,33.5,25.5,94,69,27,30.33,30.13,19,2,19,0.02
2013-11-12,43.7,33.4,24.1,41.5,24.7,19.8,92,72,47,30.69,30.26,21,4,21,0.03
2013-11-13,46.4,29.8,18.4,27.4,21.8,16.2,94,75,42,30.73,30.46,13,1,13,0.00
2013-11-14,28.0,25.8,24.1,21.5,20.9,20.1,86,81,76,30.46,30.42,3,0,3,0.00
2013-11-21,54.6,52.2,51.4,52.3,50.7,49.9,96,95,90,30.23,30.20,5,0,5,0.15
2013-11-22,55.9,49.9,40.3,55.0,47.9,35.2,97,93,82,30.41,30.18,18,3,18,0.08
2013-11-23,43.2,34.2,22.1,35.5,24.4,11.5,85,68,41,30.64,30.39,20,4,20,0.00
2013-11-24,31.6,22.7,15.6,16.9,13.5,10.4,85,68,49,30.76,30.58,13,2,13,0.00
2013-11-25,39.0,31.3,20.7,30.5,21.3,15.6,92,68,48,30.58,30.23,14,2,18,0.00
2013-11-26,35.7,34.0,32.6,32.9,30.7,26.9,94,88,75,30.26,29.97,14,1,14,0.03
2013-11-27,34.3,26.6,16.4,27.8,18.2,11.0,92,71,58,30.39,30.01,19,4,19,0.00
2013-11-28,41.3,25.0,13.9,21.4,16.5,11.3,90,72,43,30.51,30.35,19,2,19,0.00
2013-11-29,48.1,28.6,16.2,29.6,21.6,13.8,93,77,49,30.66,30.51,9,1,9,0.00
2013-11-30,57.6,37.1,21.8,34.9,26.8,19.6,94,70,39,30.52,30.23,19,2,19,0.00
2013-12-1,58.8,46.2,36.0,41.4,34.7,29.4,89,65,52,30.23,29.98,14,2,14,0.00
2013-12-2,56.7,43.7,32.7,44.2,38.4,30.6,94,82,62,29.98,29.77,7,0,7,0.00
2013-12-3,57.6,47.2,32.8,52.3,44.7,31.3,97,91,79,29.86,29.77,12,2,12,0.00
2013-12-4,68.5,59.0,45.6,61.5,55.0,44.0,97,87,73,29.83,29.68,18,4,18,0.00
2013-12-5,67.5,48.0,32.3,63.0,45.1,30.4,96,90,78,30.19,29.77,19,4,19,0.56
2013-12-6,32.3,28.3,25.3,30.3,26.4,23.6,94,93,91,30.45,30.14,10,0,10,0.24
2013-12-7,28.4,21.4,12.4,25.5,18.9,9.9,93,90,86,30.65,30.44,0,0,0,0.15
2013-12-8,32.5,26.7,21.7,31.2,24.5,18.4,95,91,87,30.53,30.08,0,0,0,0.00
2013-12-9,32.5,28.4,23.8,31.4,25.6,19.7,96,89,83,30.30,30.08,15,2,15,0.00
2013-12-10,32.7,23.5,13.9,24.2,18.9,11.4,91,83,62,30.43,30.22,18,3,18,0.07
2013-12-11,13.8,12.8,11.9,11.4,10.4,9.3,90,90,89,30.44,30.42,4,0,4,0.00
2013-12-12,23.5,22.2,21.0,14.0,12.2,10.7,67,65,62,30.44,30.42,9,2,9,0.00
2013-12-13,42.7,28.8,14.9,32.1,21.3,11.7,94,75,50,30.42,30.15,17,2,17,0.10
2013-12-14,38.7,35.5,32.1,37.7,34.1,30.3,100,95,93,30.16,29.76,17,3,17,0.88
2013-12-15,32.1,29.2,26.7,30.3,25.7,22.5,93,87,82,30.19,30.00,19,4,19,0.00
2013-12-16,47.4,35.4,29.2,36.9,30.9,26.9,94,84,65,30.18,30.04,14,3,14,0.02
2013-12-17,37.2,32.5,26.5,35.2,28.9,24.1,95,87,70,30.26,30.03,14,2,14,0.01
2013-12-18,47.7,33.4,21.2,26.2,22.3,17.9,92,67,39,30.36,30.12,17,2,17,0.00
2013-12-19,62.8,48.8,36.1,45.9,35.9,24.0,74,61,49,30.15,29.98,21,6,25,0.00
2013-12-20,61.9,56.4,49.4,58.9,50.9,41.4,94,83,60,29.98,29.84,21,7,21,0.11
2013-12-21,68.1,62.3,59.0,64.8,60.6,57.9,100,94,87,29.85,29.44,39,7,39,3.67
2013-12-22,60.5,48.1,36.2,59.6,45.8,33.5,97,92,86,30.12,29.52,28,6,28,0.20
2013-12-23,36.1,30.4,25.9,33.5,25.2,19.7,91,81,74,30.48,30.12,19,4,19,0.00
2013-12-24,26.2,19.5,13.1,21.5,13.0,5.7,84,75,63,30.65,30.46,17,4,17,0.00
2013-12-25,36.6,35.8,34.9,27.3,24.9,22.9,70,64,59,30.30,30.28,12,1,12,0.00
2013-12-26,45.6,34.3,26.2,30.0,26.7,23.1,89,75,51,30.44,30.28,17,2,17,0.00
2013-12-27,53.4,33.8,21.2,35.1,26.5,19.1,95,77,47,30.47,30.36,15,1,15,0.00
2013-12-28,49.3,36.7,24.5,35.8,29.1,22.2,93,76,54,30.37,30.03,12,1,12,0.04
2013-12-29,46.9,37.9,29.5,42.0,35.3,26.6,96,90,78,30.14,29.88,20,3,20,0.53
2013-12-30,32.9,26.5,20.9,26.6,19.8,14.5,90,76,55,30.32,30.14,12,2,12,0.00
2013-12-31,43.7,29.2,20.8,25.3,20.0,14.9,81,69,46,30.47,30.26,15,3,15,0.00
2014-1-1,50.7,35.6,24.9,33.1,27.3,21.8,92,73,47,30.34,30.02,17,2,17,0.00
2014-1-2,36.2,26.4,13.3,34.2,23.2,8.5,95,88,79,30.40,29.85,23,4,23,0.18